Location: Oberwangen
(47.4286°N, 8.9679°E)
Time: 19:57:36
(UTC+00:00)

Cosmos 1953 Rocket - Pass Details

Date: 31 October 2021
Orbit: 603 x 635 km, 82.5° (Epoch: 03 December)

Event Time Altitude Azimuth Distance (km) Brightness Sun altitude
Rises 18:44:44 0° 341° (NNW) 2,937 7.4 -26.9°
Reaches altitude 10° 18:47:11 10° 331° (NNW) 2,020 6.6 -27.3°
Maximum altitude 18:51:04 29° 271° (W) 1,146 5.5 -27.9°
Drops below altitude 10° 18:54:53 10° 211° (SSW) 1,990 6.4 -28.6°
Sets 18:57:18 0° 200° (SSW) 2,885 7.1 -29.0°
